Location: Ithaca
(42.4410°N, 76.4970°W)
Time: 16:16:07
(UTC-05:00)

Hubble Space Telescope - Visible Passes

Search period start: 20 November 2017 00:00
Search period end: 30 November 2017 00:00
Orbit: 537 x 541 km, 28.5° (Epoch: 20 November)

Date Brightness Start Highest point End Pass type
(mag) Time Alt. Az. Time Alt. Az. Time Alt. Az.
20 Nov 3.4 05:47:28 10° SSW 05:48:53 12° S 05:50:20 10° SSE visible
21 Nov 3.3 05:37:11 10° SSW 05:38:32 11° S 05:39:54 10° SSE visible
22 Nov 3.3 05:27:03 10° SSW 05:28:11 11° S 05:29:19 10° S visible
23 Nov 3.3 05:17:12 10° SSW 05:17:49 10° S 05:18:25 10° S visible
